AO-07 1 07530U 74089B 23103.21845731 -.00000011 00000-0 22036-3 0 9992 2 07530 101.9446 89.4654 0012135 186.3492 184.8709 12.53663224215035 UO-11 1 14781U 84021B 23103.69947087 .00002408 00000-0 29058-3 0 9996 2 14781 97.6529 83.1574 0009674 60.1704 300.0471 14.84652906105571 AO-16 1 20439U 90005D 23103.86938921 .00000336 00000-0 13958-3 0 9998 2 20439 98.8811 92.4615 0011452 36.8668 30.0028 14.33069800735947 LO-19 1 20442U 90005G 23103.66527622 .00000345 00000-0 14217-3 0 9991 2 20442 98.8389 78.8221 0011997 13.6423 346.5082 14.33224229736166 HUBBLE 1 20580U 90037B 23103.10252396 .00005385 00000-0 28936-3 0 9993 2 20580 28.4708 340.8994 0002871 36.3969 91.1395 15.12692579611594 MET-2/21 1 22782U 93055A 23103.71311943 .00000069 00000-0 48951-4 0 9997 2 22782 82.5468 135.9471 0021341 222.2166 276.3074 13.83881909495803 AO-27 1 22825U 93061C 23103.07970504 .00000170 00000-0 83382-4 0 9995 2 22825 98.8492 144.8970 0007377 255.9532 104.0830 14.30280825540984 IO-26 1 22826U 93061D 23103.09948630 .00000198 00000-0 93294-4 0 9996 2 22826 98.8438 144.7821 0008043 240.2613 119.7769 14.30638610541251 FO-29 1 24278U 96046B 23103.86047971 -.00000007 00000-0 30106-4 0 9991 2 24278 98.5248 91.1959 0349542 223.6486 133.6518 13.53141121316484 NOAA-15 1 25338U 98030A 23103.33761652 .00000247 00000-0 12104-3 0 9997 2 25338 98.6130 133.4840 0011242 138.9121 221.2908 14.26288973295761 GO-32 1 25397U 98043D 23103.36048131 .00000184 00000-0 10011-3 0 9994 2 25397 98.8623 60.2812 0001126 17.0454 343.0762 14.23854891286101 ISS 1 25544U 98067A 23103.87255372 .00014371 00000-0 26137-3 0 9996 2 25544 51.6392 287.2497 0006287 189.4893 314.6227 15.49761673391818 NO-44 1 26931U 01043C 23103.12699776 .00000279 00000-0 13756-3 0 9998 2 26931 67.0534 4.8115 0007218 281.3951 78.6339 14.30883393124278 SO-50 1 27607U 02058C 23103.71632592 .00001766 00000-0 25824-3 0 9995 2 27607 64.5527 102.5549 0074365 237.5806 121.8089 14.77092752 92919 CO-55 1 27844U 03031E 23103.76094244 .00000563 00000-0 27059-3 0 9997 2 27844 98.6803 111.9581 0008912 318.0498 41.9997 14.22721927 26600 CO-57 1 27848U 03031J 23102.69474513 .00000434 00000-0 21530-3 0 9998 2 27848 98.6842 111.3471 0009123 337.3223 22.7551 14.22238566 26193 RS-22 1 27939U 03042A 23103.78481844 .00001925 00000-0 34287-3 0 9996 2 27939 98.2317 250.3052 0011990 345.3532 14.7334 14.68183635 45099 NOAA-18 1 28654U 05018A 23103.83783877 .00000289 00000-0 17899-3 0 9995 2 28654 98.9123 178.5344 0014121 197.8937 162.1739 14.12910765922484 CO-58 1 28895U 05043F 23103.62019917 .00002413 00000-0 45471-3 0 9992 2 28895 98.1422 236.2227 0015105 275.3794 84.5686 14.65391078931580 CO-65 1 32785U 08021C 23103.01108495 .00004926 00000-0 49410-3 0 9995 2 32785 97.7006 70.4107 0011285 328.5040 31.5502 14.91727139811105 AAUSAT2 1 32788U 08021F 23102.91668413 .00012067 00000-0 91374-3 0 9998 2 32788 97.5560 83.8762 0006613 198.6082 161.4902 15.02422536813304 DO-64 1 32789U 08021G 23103.09929385 .00052913 00000-0 18379-2 0 9994 2 32789 97.3118 125.3355 0006003 19.9975 340.1500 15.29557418817414 CO-66 1 32791U 08021J 23102.67076489 .00008129 00000-0 73171-3 0 9990 2 32791 97.6514 75.3441 0009787 272.2469 87.7631 14.95839220811862 RS-30 1 32953U 08025A 23103.41663362 .00000024 00000-0 10000-3 0 9997 2 32953 82.5093 357.3897 0019391 328.9641 31.0293 12.43121691675601 PRISM 1 33493U 09002B 23103.46466285 .00012138 00000-0 85761-3 0 9998 2 33493 98.2496 113.5104 0014624 261.4284 98.5284 15.04991580774018 NOAA-19 1 33591U 09005A 23103.80348209 .00000237 00000-0 15260-3 0 9997 2 33591 99.1075 148.6808 0014738 66.5854 293.6865 14.12730895730858 SRMSAT 1 37841U 11058D 23103.43300590 .00000523 00000-0 14242-3 0 9997 2 37841 19.9714 241.5266 0011967 40.3398 4.8698 14.10870578593657 HRBE 1 37855U 11061F 23103.37162076 .00023755 00000-0 80930-3 0 9993 2 37855 101.7029 28.9344 0125946 237.8531 121.0420 15.23100895626688 RS-40 1 38735U 12041C 23103.74103422 -.00000012 00000-0 -16289-3 0 9990 2 38735 82.4737 78.2760 0018623 77.1287 283.1874 12.42592157485818 ZACUBE-1 1 39417U 13066B 23103.46678725 .00004314 00000-0 50481-3 0 9997 2 39417 97.6797 67.4512 0056568 138.7896 221.7611 14.84413709507595 Delfi-N3xt 1 39428U 13066N 23103.54465239 .00008761 00000-0 12717-2 0 9991 2 39428 97.8314 30.7082 0113469 37.7055 323.2036 14.71865769502809 GOMX-1 1 39430U 13066Q 23103.49692712 .00002131 00000-0 37778-3 0 9996 2 39430 97.7864 358.3984 0146097 177.4650 182.7323 14.61496636500095 LO-74 1 39440U 13066AA 23103.50000690 .00003617 00000-0 47465-3 0 9991 2 39440 97.7666 54.4096 0074404 236.9925 122.4122 14.78968899505795 AO-73 1 39444U 13066AE 23103.63582222 .00005734 00000-0 64444-3 0 9993 2 39444 97.6661 70.1091 0055293 124.4607 236.1850 14.85970406506647 SPROUT 1 39770U 14029E 23103.57311635 .00025844 00000-0 21097-2 0 9996 2 39770 97.9636 229.1000 0009275 167.0986 251.7669 14.99362222482462 DTUSAT-2 1 40030U 14033W 23103.32954097 .00005563 00000-0 54787-3 0 9999 2 40030 97.9631 43.0869 0012010 137.9924 222.2217 14.92418978478328 EO-80 1 40032U 14033Y 23103.64068673 .00006274 00000-0 61710-3 0 9996 2 40032 97.9628 43.4189 0011997 138.1937 222.0200 14.92420837478861 HODOYOSHI-1 1 40299U 14070B 23103.77240101 .00013423 00000-0 43369-3 0 9998 2 40299 97.1993 168.1568 0012246 143.1502 357.7703 15.32143654468947 FIREBIRD FU3 1 40377U 15003B 23103.61348801 .00118293 00000-0 15684-2 0 9990 2 40377 99.0753 44.2323 0061865 77.4961 283.3200 15.55558835454555 FIREBIRD FU4 1 40378U 15003C 23103.36117787 .00121714 00000-0 16069-2 0 9990 2 40378 99.0778 44.2188 0062210 77.2628 283.5565 15.55634803454517 GRIFEX 1 40379U 15003D 23103.59083987 .00035262 00000-0 87913-3 0 9999 2 40379 99.0780 25.0658 0091559 132.3269 228.5773 15.35841277453457 XW-2A 1 40903U 15049E 23103.64961120 .00759844 29650-3 10622-2 0 9998 2 40903 97.1087 171.9918 0003801 206.1055 257.5681 16.05934412426222 XW-2C 1 40906U 15049H 23103.82983895 .00015471 00000-0 62540-3 0 9997 2 40906 97.4962 110.8211 0013364 37.5608 40.4946 15.24746653418584 XW-2D 1 40907U 15049J 23103.81012587 .00018488 00000-0 71180-3 0 9999 2 40907 97.4950 111.1754 0012429 32.6558 140.8698 15.26346559418659 LILACSAT-2 1 40908U 15049K 23103.82689532 .00007864 00000-0 37926-3 0 9997 2 40908 97.5269 107.1002 0015857 59.2225 18.5022 15.18867553418025 XW-2E 1 40909U 15049L 23103.86160436 .00033627 00000-0 10044-2 0 9996 2 40909 97.4587 116.8982 0008957 9.3864 74.5622 15.34493702419264 XW-2F 1 40910U 15049M 23103.51890146 .00033315 00000-0 10147-2 0 9996 2 40910 97.4675 115.7700 0009882 11.5330 139.3483 15.33867018418966 XW-2B 1 40911U 15049N 23103.79712948 .00018168 00000-0 70376-3 0 9990 2 40911 97.4939 111.6388 0012280 34.1848 138.8973 15.26150199418536 DCBB 1 40912U 15049P 23103.51562495 .00040420 00000-0 10466-2 0 9990 2 40912 97.4231 120.2342 0007209 326.5483 185.7110 15.38920186419647 IO-86 1 40931U 15052B 23103.61348986 .00001358 00000-0 98609-4 0 9997 2 40931 5.9968 187.5163 0012503 98.6439 261.5236 14.77151634407798 ATHENOXAT-1 1 41168U 15077C 23102.99898769 .00101489 00000-0 21189-2 0 9999 2 41168 14.9952 7.6162 0004165 206.0595 260.1141 15.43661180406186 ChubuSat-2 1 41338U 16012B 23103.75513971 .00005202 00000-0 36613-3 0 9997 2 41338 31.0023 269.5867 0012226 256.8713 103.0559 15.03460880392673 ChubuSat-3 1 41339U 16012C 23103.83177596 .00004718 00000-0 33237-3 0 9996 2 41339 31.0122 266.1129 0012348 265.2856 207.2698 15.03365367392681 Horyu-4 1 41340U 16012D 23103.43249779 .00009057 00000-0 58477-3 0 9991 2 41340 31.0033 239.5447 0011387 314.9193 45.0520 15.06920386392941 e-st@r-II 1 41459U 16025D 23103.52571255 .00028517 00000-0 91475-3 0 9990 2 41459 98.1931 298.4505 0113766 323.6513 60.4130 15.26143112383022 AAUSAT4 1 41460U 16025E 23103.53549536 .00081679 00000-0 15889-2 0 9992 2 41460 98.1692 308.9699 0076615 283.4107 129.1573 15.44090263383754 LO-87 1 41557U 16033B 23103.85672330 .00059785 00000-0 99687-3 0 9994 2 41557 97.3836 209.5808 0005997 15.5287 133.2656 15.51771570383627 NuSat2 1 41558U 16033C 23103.89967626 .00067368 00000-0 10248-2 0 9995 2 41558 97.4108 217.1761 0005512 359.4309 121.3580 15.54296244383955 Lapan A3 1 41603U 16040E 23103.85656580 .00003284 00000-0 14618-3 0 9997 2 41603 97.1728 132.3866 0012693 175.5657 288.0949 15.22066897377706 Pratham 1 41783U 16059A 23103.84063670 .00000968 00000-0 19297-3 0 9991 2 41783 97.8762 137.8006 0031838 305.6778 54.1463 14.63834440349565 TY-1 1 41844U 16066D 23103.80544410 .00054928 00000-0 10950-2 0 9990 2 41844 97.3753 121.6234 0006147 293.1068 239.2702 15.46681725357705 CAS-2T 1 41847U 16066G 23103.81043133 .00001753 00000-0 26844-3 0 9998 2 41847 98.5084 172.6596 0360965 30.7442 331.4357 14.39518699337548 EO-88 1 42017U 17008BX 23103.17191214 .00111578 00000-0 13686-2 0 9994 2 42017 97.2189 172.5645 0004219 221.1304 138.9635 15.59946678343275 CAS-4B 1 42759U 17034B 23103.75392446 .00009244 00000-0 48093-3 0 9997 2 42759 43.0153 113.5633 0009907 38.5456 130.3952 15.16187701321852 CAS-4A 1 42761U 17034D 23103.77147008 .00009463 00000-0 49119-3 0 9997 2 42761 43.0150 112.0184 0010810 40.4291 128.6366 15.16240732321865 NIUSat 1 42766U 17036B 23103.83812272 .00028253 00000-0 80721-3 0 9995 2 42766 97.1656 136.7283 0009328 344.8728 15.2236 15.35921513322729 Aalto 1 1 42775U 17036L 23103.50688169 .00019916 00000-0 62397-3 0 9990 2 42775 97.1609 135.5023 0009421 348.8042 11.2990 15.33074353322602 URSA MAIOR 1 42776U 17036M 23103.83768428 .00024242 00000-0 72346-3 0 9997 2 42776 97.1619 136.9885 0008614 344.0106 16.0865 15.34586571322714 Max Valier Sat 1 42778U 17036P 23103.07794396 .00023876 00000-0 68683-3 0 9999 2 42778 97.1655 139.5661 0007168 349.6257 10.4838 15.35758769322728 Pegasus 1 42784U 17036V 23103.11108489 .00040165 00000-0 94032-3 0 9990 2 42784 97.1569 141.5352 0005711 341.5654 18.5386 15.41994878322933 NUDATSat 1 42787U 17036Y 23103.84426564 .00208883 00000-0 18475-2 0 9999 2 42787 97.1511 150.7464 0003201 243.0001 117.0933 15.67988299323429 SUCHAI 1 1 42788U 17036Z 23103.08735203 .00061924 00000-0 11627-2 0 9994 2 42788 97.1548 144.5099 0003810 326.0051 34.0956 15.48397406323198 SKCUBE 1 42789U 17036AA 23103.10865285 .00049728 00000-0 10475-2 0 9990 2 42789 97.1561 143.3541 0004638 333.0475 27.0533 15.45098467323049 VZLUSAT 1 1 42790U 17036AB 23103.10378487 .00179135 00000-0 17187-2 0 9998 2 42790 97.1492 149.7710 0002947 252.6859 107.4080 15.66053681323441 VENTA 1 1 42791U 17036AC 23103.07404795 .00041491 00000-0 96589-3 0 9994 2 42791 97.1576 142.6518 0005003 338.7670 21.3370 15.42161560322980 Robusta 1B 1 42792U 17036AD 23103.38558492 .00060117 00000-0 11670-2 0 9996 2 42792 97.1537 144.6208 0003835 328.7563 31.3459 15.47442628323169 D-SAT 1 42794U 17036AF 23103.43017462 .00003841 00000-0 31014-3 0 9997 2 42794 97.4647 98.5415 0118547 158.7268 201.8943 14.94996751316259 TechnoSat 1 42829U 17042E 23103.80216996 .00002707 00000-0 26325-3 0 9996 2 42829 97.3950 305.0924 0014993 82.7561 277.5363 14.93258683312882 AO-91 1 43017U 17073E 23103.25839026 .00006976 00000-0 49872-3 0 9998 2 43017 97.6388 350.1716 0234719 283.6657 73.8524 14.85198093291542 PICSAT 1 43132U 18004X 23103.64364425 .00063201 00000-0 11517-2 0 9998 2 43132 97.3345 185.3967 0003939 355.8000 4.3218 15.49250140292529 AO-92 1 43137U 18004AC 23103.18936704 .00036403 00000-0 86850-3 0 9994 2 43137 97.3317 181.8852 0005272 26.3127 333.8387 15.41448978292278 TianYi 2 1 43155U 18008A 23103.81251920 .00020804 00000-0 88236-3 0 9996 2 43155 97.3063 157.9620 0014596 169.9894 301.6163 15.23040368288841 Zhou Enlai 1 43156U 18008B 23103.84186851 .00023012 00000-0 96739-3 0 9991 2 43156 97.3111 158.0216 0012267 169.3533 304.2973 15.23350127288773 TianYi 6 1 43158U 18008D 23103.12220454 .00017510 00000-0 79379-3 0 9999 2 43158 97.3108 154.5352 0011549 175.8283 244.4811 15.20840592288525 S-Net D 1 43186U 18014G 23103.28688057 .00005505 00000-0 44703-3 0 9995 2 43186 97.6419 8.2635 0012850 27.5113 332.6788 14.99960788283820 S-Net B 1 43187U 18014H 23103.48773987 .00005628 00000-0 45692-3 0 9999 2 43187 97.6421 8.3966 0012877 26.1161 334.0710 14.99959390283850 S-Net A 1 43188U 18014J 23103.28783963 .00005498 00000-0 44651-3 0 9992 2 43188 97.6424 8.2830 0012918 26.8424 333.3466 14.99958787283824 S-Net C 1 43189U 18014K 23103.55629024 .00005437 00000-0 44159-3 0 9996 2 43189 97.6425 8.4487 0013032 24.6565 335.5279 14.99956079282418 Shaonian Xing 1 43199U 18015H 23103.89040765 .00112906 00000-0 13964-2 0 9993 2 43199 97.5415 258.8337 0005065 32.0076 71.9973 15.59717219289742 CubeBel-1 1 43666U 18083E 23103.86222661 .00031826 00000-0 96480-3 0 9997 2 43666 97.3889 135.2537 0009297 3.3590 100.9297 15.34032018247327 Changshagaoxin 1 43669U 18083H 23103.89613911 .00027899 00000-0 92466-3 0 9990 2 43669 97.3875 130.2322 0007188 8.0871 93.7689 15.31221327247091 Ten-Koh 1 43677U 18084G 23103.66853403 .00004065 00000-0 39956-3 0 9992 2 43677 98.0022 242.4304 0015079 7.1403 353.0027 14.92640358242433 PO-101 1 43678U 18084H 23103.86280890 .00001847 00000-0 18255-3 0 9993 2 43678 98.0106 246.5826 0010069 21.0778 339.0877 14.93172337242665 QO-100 1 43700U 18090A 23103.70657693 .00000136 00000-0 00000+0 0 9993 2 43700 0.0158 178.2021 0001313 231.7160 71.8574 1.00271628 16285 Reaktor Hello World 1 43743U 18096AA 23103.63300631 .00058054 00000-0 10043-2 0 9998 2 43743 97.3199 189.2015 0010215 62.8618 297.3674 15.50703003244144 MinXSS-2 1 43758U 18099A 23103.13362616 .00008161 00000-0 64876-3 0 9991 2 43758 97.5886 168.6645 0016095 349.2077 10.8799 15.00594445237981 AO-95 1 43770U 18099N 23103.16356230 .00005768 00000-0 47871-3 0 9999 2 43770 97.5767 166.4637 0012579 349.9027 10.1942 14.99096697237868 RANGE-B 1 43772U 18099Q 23103.77203179 .00008354 00000-0 66510-3 0 9996 2 43772 97.5867 169.6081 0008287 331.4518 28.6251 15.00599488238004 RANGE-A 1 43773U 18099R 23103.75339231 .00004077 00000-0 34993-3 0 9992 2 43773 97.5695 165.3137 0012200 339.1809 20.8915 14.97966095237914 MOVE-II 1 43780U 18099Y 23103.13129716 .00012374 00000-0 93811-3 0 9990 2 43780 97.5753 168.5774 0008963 16.0543 344.0965 15.02356342237962 SNUSat 2 1 43782U 18099AA 23103.12506250 .00006345 00000-0 52684-3 0 9997 2 43782 97.5793 166.9426 0010242 346.1007 13.9933 14.99060290237886 SnugLite 1 43784U 18099AC 23103.36672176 .00006187 00000-0 50707-3 0 9994 2 43784 97.5728 166.8151 0012405 339.3790 20.6931 14.99558388237957 ITASat 1 1 43786U 18099AE 23103.75440305 .00004450 00000-0 37231-3 0 9994 2 43786 97.5813 168.0745 0013988 343.3593 16.7169 14.98890255237994 EAGLET 1 1 43790U 18099AJ 23103.37978937 .00004186 00000-0 35349-3 0 9998 2 43790 97.5797 168.2174 0011595 349.6263 10.4718 14.98591686237675 ESEO 1 43792U 18099AL 23103.61288424 .00001738 00000-0 15440-3 0 9992 2 43792 97.5761 167.0983 0012519 349.3819 10.7137 14.97339789237721 CSIM 1 43793U 18099AM 23103.77880342 .00011146 00000-0 83316-3 0 9998 2 43793 97.5828 170.4476 0015014 352.6573 7.4430 15.02862193237904 Astrocast 0.1 1 43798U 18099AS 23103.59063036 .00009962 00000-0 77159-3 0 9997 2 43798 97.5925 169.6699 0013703 321.0898 38.9339 15.01557680238074 JO-97 1 43803U 18099AX 23102.36055078 .00006149 00000-0 49823-3 0 9996 2 43803 97.5750 166.6535 0012899 336.1858 23.8767 14.99994705237820 Suomi 100 1 43804U 18099AY 23103.41097584 .00005671 00000-0 46256-3 0 9998 2 43804 97.5797 167.5120 0014466 345.5095 14.5712 14.99757247237983 Al Farabi 2 1 43805U 18099AZ 23103.15505700 .00007848 00000-0 61580-3 0 9999 2 43805 97.5809 168.2269 0007905 329.2465 30.8298 15.01178569237999 CHOMPTT 1 43855U 18104G 23103.34192705 .00030310 00000-0 82860-3 0 9993 2 43855 85.0340 210.1489 0013636 197.6513 162.4265 15.37139505240600 ISAT 1 43879U 18111D 23103.27419280 .00008599 00000-0 66813-3 0 9993 2 43879 97.6513 8.6519 0015365 19.3254 340.8549 15.01462472234595 UWE-4 1 43880U 18111E 23103.39492833 .00008187 00000-0 63788-3 0 9994 2 43880 97.6432 9.6031 0017875 39.9684 320.2852 15.01337955232640 Sparrow 1 43881U 18111F 23103.29646346 .00009035 00000-0 69660-3 0 9992 2 43881 97.6490 9.9514 0012872 61.7722 298.4800 15.01769284234647 Lume 1 1 43908U 18111AJ 23103.22506963 .00036568 00000-0 84986-3 0 9994 2 43908 97.1497 347.5959 0016103 79.5887 280.7175 15.42114048239363 FO-99 1 43937U 19003F 23103.07040749 .00048285 00000-0 98375-3 0 9991 2 43937 97.0961 131.3684 0016674 148.9411 211.2828 15.45944481235962 AstroCast 0.2 1 44083U 19018F 23103.14624351 .00058055 00000-0 13319-2 0 9995 2 44083 97.2751 162.6863 0008185 147.2077 212.9680 15.42498121224366 AISTechSat 3 1 44103U 19018AB 23102.45664628 .00030581 00000-0 83040-3 0 9995 2 44103 97.2604 161.5108 0011342 147.3474 337.7747 15.37470837224398 AISat 1 1 44104U 19018AC 23103.19957032 .00025916 00000-0 54873-3 0 9990 2 44104 97.3720 193.4946 0044350 134.2572 226.2330 15.44013393225683 Prox-1 1 44339U 19036A 23103.39487869 .00008684 00000-0 17858-2 0 9992 2 44339 24.0007 96.1929 0009538 269.6604 90.2795 14.58513916202124 Move-IIb 1 44398U 19038N 23103.40276608 .00049610 00000-0 14922-2 0 9991 2 44398 97.6602 83.4578 0017195 151.0494 209.1706 15.34074514208719 SONATE 1 44400U 19038Q 23103.87483184 .00013271 00000-0 61834-3 0 9994 2 44400 97.6804 80.2838 0021565 169.6536 190.5146 15.19820253208464 BeeSat 9 1 44412U 19038AC 23103.85614846 .00026978 00000-0 10236-2 0 9993 2 44412 97.6712 82.5489 0017326 161.8803 198.3056 15.26686139208336 JAISAT-1 1 44419U 19038F 23103.68889830 .00027103 00000-0 10179-2 0 9995 2 44419 97.6715 83.4282 0016645 158.6089 201.5848 15.27034802208689 Taurus 1 1 44530U 19059C 23103.40865497 .00005515 00000-0 14509-2 0 9999 2 44530 98.5477 210.2613 0011329 286.8901 73.1052 14.49442526189257 Duchifat 3 1 44854U 19089C 23103.44685012 .00009168 00000-0 63615-3 0 9999 2 44854 36.9636 117.8951 0007955 158.7052 348.9841 15.05107282183073 OPS-SAT 1 44878U 19092F 23103.76543523 .00031443 00000-0 10487-2 0 9993 2 44878 97.4787 291.8305 0008814 9.1961 350.9440 15.30981064183925 TO-108 1 44881U 19093C 23103.43241090 .00001353 00000-0 17537-3 0 9997 2 44881 97.8626 182.9866 0013503 291.6228 68.3549 14.82366027179200 FloripaSat 1 1 44885U 19093G 23103.82092778 .00004766 00000-0 56097-3 0 9996 2 44885 97.8693 185.7207 0012323 291.9322 68.0578 14.85238502179393 RS-44 1 44909U 19096E 23103.48794965 .00000023 00000-0 52473-4 0 9992 2 44909 82.5260 30.9316 0217158 338.5684 20.6426 12.79719907153937 BY70-2 1 45857U 20042B 23103.50685878 .00020920 00000-0 22895-2 0 9994 2 45857 97.9272 183.3052 0010127 208.6792 151.3874 14.87785964149916 UPMSat 2 1 46276U 20061E 23103.16877124 .00009096 00000-0 39820-3 0 9998 2 46276 97.3513 172.1424 0001981 146.8854 213.2507 15.22255918144392 AmicalSat 1 46287U 20061R 23103.59719291 .00015017 00000-0 73360-3 0 9994 2 46287 97.4051 171.3821 0001025 358.5267 1.5964 15.18346167143906 SALSAT 1 46495U 20068K 23103.33451910 .00007055 00000-0 47343-3 0 9990 2 46495 97.7641 50.7054 0015348 347.0095 13.0734 15.07055857139301 CAPE 3 1 47309U 21002A 23103.53893021 .00035762 00000-0 98038-3 0 9992 2 47309 60.6790 308.6264 0027987 146.5157 213.7713 15.36699317124331 AO-109 1 47311U 21002C 23103.85728775 .00030416 00000-0 87091-3 0 9991 2 47311 60.6817 305.2433 0026612 141.8407 218.4576 15.35453379124407 MiTEE 1 1 47314U 21002F 23103.77281494 .00184963 00000-0 20222-2 0 9996 2 47314 60.6700 280.7521 0015502 137.0827 223.1491 15.62255093124823 ExoCube 2 1 47319U 21002L 23102.97969610 .00029360 00000-0 86022-3 0 9995 2 47319 60.6808 310.4947 0027358 143.4906 216.8059 15.34728866124192 UVSQ-SAT 1 47438U 21006AB 23102.14895763 .00015332 00000-0 66815-3 0 9999 2 47438 97.3917 160.2802 0008664 318.4259 41.6318 15.22249108122595 YUSAT 1 1 47439U 21006AC 23103.12328564 .00022077 00000-0 90714-3 0 9998 2 47439 97.3925 161.7733 0008068 310.6672 49.3863 15.24170156122773 SOMP 2b 1 47445U 21006AJ 23103.15939720 .00016426 00000-0 72863-3 0 9996 2 47445 97.3889 160.6218 0008568 320.3988 39.6621 15.21629420122727 IDEASSat 1 47458U 21006AX 23103.57866507 .00015317 00000-0 68861-3 0 9999 2 47458 97.3976 161.7836 0007894 317.8245 42.2383 15.21190916122777 CubeSX-Sirius-HSE 1 47951U 21022V 23103.73168566 .00010939 00000-0 63638-3 0 9995 2 47951 97.5027 2.1747 0018436 192.5308 242.4746 15.12083568113282 CubeSX-HSE 1 47952U 21022W 23103.76684828 .00011154 00000-0 64747-3 0 9995 2 47952 97.5035 2.2517 0018767 190.7287 206.3963 15.12152938113290 KSU-Cubesat 1 47954U 21022Y 23103.25013540 .00012063 00000-0 68685-3 0 9993 2 47954 97.5041 2.0372 0018116 191.0602 169.0233 15.12836805112958 GRBAlpha 1 47959U 21022AD 23103.76616741 .00010988 00000-0 63675-3 0 9994 2 47959 97.5033 2.3232 0018488 191.1763 257.2637 15.12220597112114 Orbicraft-Zorkiy 1 47960U 21022AE 23103.55781565 .00011884 00000-0 67797-3 0 9995 2 47960 97.5063 2.4604 0018023 191.1509 289.5867 15.12770650112782 STECCO 1 47962U 21022AG 23103.65486740 .00020776 00000-0 10326-2 0 9990 2 47962 97.5028 4.4277 0013337 177.5091 269.7756 15.17599179112248 DO-111 1 47963U 21022AH 23103.20130301 .00122794 00000-0 29800-2 0 9991 2 47963 97.5035 9.1737 0012134 146.4128 213.7889 15.40486659112521 MO-110 1 47964U 21022AJ 23103.25917472 .00021205 00000-0 10328-2 0 9999 2 47964 97.5047 4.5469 0015749 174.6563 185.4842 15.18269109112211 FEES 1 48082U 21022AL 23103.37813485 .00036051 00000-0 15387-2 0 9998 2 48082 97.5039 5.3815 0011975 164.4915 195.6691 15.22744337111987 TUBIN 1 48900U 21059X 23103.74427378 .00011599 00000-0 56922-3 0 9991 2 48900 97.5883 237.0281 0010345 142.2582 323.5565 15.18209039 99390 IT-SPINS 1 49017U 21013G 23103.54160141 .00039179 00000-0 10308-2 0 9992 2 49017 51.5946 34.7417 0009317 91.3223 268.8828 15.38134810 99744 LEDSAT 1 49069U 21073D 23103.13428121 .00010018 00000-0 56795-3 0 9997 2 49069 97.4866 175.1539 0023874 348.4480 11.6200 15.12935013 91062 CUTE 1 49263U 21088D 23103.19532134 .00011642 00000-0 77106-3 0 9998 2 49263 97.5494 170.1601 0020005 124.4295 235.8827 15.07304627 84499 TeikyoSat 4 1 49396U 21102B 23103.58122667 .00001924 00000-0 15137-3 0 9999 2 49396 97.5161 157.5629 0013562 312.6607 47.3474 15.01913638 78077 Z-Sat 1 49399U 21102E 23103.84228785 .00004480 00000-0 32409-3 0 9990 2 49399 97.4907 158.9108 0020983 289.5507 70.3454 15.04344376 78210 KOSEN 1 1 49402U 21102H 23103.72255338 .00004601 00000-0 31900-3 0 9996 2 49402 97.4841 159.2021 0019574 278.3887 81.5121 15.05943117 78259 HO-113 1 50466U 21131B 23103.35967856 .00000865 00000-0 29587-3 0 9990 2 50466 98.5526 185.1094 0003674 349.7224 10.3888 14.38820239 68032 Tevel-3 1 50988U 22002E 23103.84863998 .00022175 00000-0 95819-3 0 9992 2 50988 97.4387 171.3543 0009764 104.3414 7.1400 15.22451726 68963 Tevel-8 1 50989U 22002F 23103.47313472 .00021946 00000-0 95049-3 0 9999 2 50989 97.4412 171.0352 0009948 105.2243 21.5501 15.22372835 68901 Tevel-5 1 50998U 22002Q 23103.89156365 .00023127 00000-0 97767-3 0 9993 2 50998 97.4379 171.7100 0010816 98.3097 12.7487 15.23176950 68991 Tevel-6 1 50999U 22002R 23103.89003419 .00023069 00000-0 97512-3 0 9998 2 50999 97.4372 171.7043 0010864 99.0925 11.4456 15.23180923 68999 Tevel-1 1 51013U 22002AF 23103.85668763 .00022039 00000-0 95350-3 0 9995 2 51013 97.4388 171.3147 0009619 103.1356 8.6721 15.22412303 68965 Grizu-263a 1 51025U 22002AT 23103.13626929 .00067883 00000-0 19479-2 0 9990 2 51025 97.4542 174.4560 0008860 108.2019 252.0189 15.35578934 69042 NO-116 1 51031U 22002AZ 23103.12421844 .00038080 00000-0 13906-2 0 9991 2 51031 97.4509 172.8340 0011044 103.9186 256.3282 15.27958468 68950 IRIS-A 1 51044U 22002BN 23103.17709698 .00011194 00000-0 55222-3 0 9991 2 51044 97.4402 169.6713 0010032 107.0109 253.2225 15.18034771 68797 Tevel-7 1 51062U 22002CG 23103.47465487 .00022013 00000-0 95309-3 0 9991 2 51062 97.4405 171.0119 0009765 104.3769 21.8578 15.22384529 68907 Tevel-4 1 51063U 22002CH 23103.41353550 .00021897 00000-0 94935-3 0 9996 2 51063 97.4404 170.9389 0009754 104.8998 24.0992 15.22340881 68897 Tevel-2 1 51069U 22002CP 23103.45853520 .00022040 00000-0 95290-3 0 9994 2 51069 97.4385 170.9423 0009594 104.6178 19.9399 15.22434890 68900 DELFI-PQ 1 51074U 22002CU 23103.13770092 .00043272 00000-0 14539-2 0 9993 2 51074 97.4639 174.8089 0011740 129.1012 231.1275 15.30641360 69031 SO-115 1 51080U 22002DA 23103.12849107 .00025993 00000-0 10207-2 0 9991 2 51080 97.4658 173.8323 0012673 129.8157 230.4199 15.25614159 68960 SO-114 1 51081U 22002DB 23102.13883842 .00024301 00000-0 95261-3 0 9992 2 51081 97.4651 172.8099 0012876 132.5199 227.7129 15.25683452 68813 OreSat0 1 52017U 22026K 23103.49072091 .00021106 00000-0 90573-3 0 9995 2 52017 97.5117 105.7933 0021361 314.9255 45.0247 15.22531137 59698 Planetum 1 1 52738U 22057G 23103.27985500 .00017547 00000-0 85642-3 0 9998 2 52738 97.5289 219.3864 0007408 206.5626 153.5229 15.18324099 48805 Foresail-1 1 52766U 22057AL 23103.77910850 .00012766 00000-0 62843-3 0 9996 2 52766 97.5405 220.7372 0012763 188.9429 274.9091 15.18051486 48903 SNUGLITE 2 1 52899U 22065F 23103.35143070 .00001785 00000-0 38859-3 0 9997 2 52899 98.0587 250.0386 0009013 64.7959 295.4175 14.59108150 41405 CTIM 1 52950U 22074G 23103.08157907 .00045463 00000-0 12220-2 0 9993 2 52950 45.0018 1.6898 0010905 177.0331 183.0621 15.37197044 43560 IO-117 1 53106U 22080B 23102.68218782 -.00000003 00000-0 00000-0 0 9991 2 53106 70.1748 342.4876 0008257 200.3328 159.7004 6.42557159 17545 AstroBioCubeSat 1 53107U 22080C 22364.14200119 -.00000003 00000-0 00000-0 0 9997 2 53107 70.1674 18.5562 0013489 216.1674 143.8074 6.42110599 10793 SelfieSat 1 53951U 22057BC 23103.57064321 .00021601 00000-0 10181-2 0 9999 2 53951 97.5342 220.1306 0009858 200.9346 159.1486 15.19474121 48868 FO-118 1 54684U 22167C 23103.76324153 .00015205 00000-0 87764-3 0 9993 2 54684 97.5512 241.8941 0014441 193.3230 302.9531 15.12343345 18937 /EX
